owner,sensor,date,latitude,longitude,vertical_datum,direction_of_sea_water_velocity,sea_water_speed,upward_sea_water_velocity,qcFlag 
TABS,ioos:station:wmo:42046:1,2006-12-01T00:00:00Z,27.8903,-94.0367,2.0,203.8353468,7.794831621,-99999.0,'11133222,11111222,99999999' 
TABS,ioos:station:wmo:42046:1,2006-12-01T00:30:00Z,27.8903,-94.0367,2.0,190.4074765,9.465738217,-99999.0,'11133222,11111222,99999999' 
TABS,ioos:station:wmo:42046:1,2006-12-01T01:00:00Z,27.8903,-94.0367,2.0,191.3812257,14.1380232,-99999.0,'11111222,11111222,99999999' 
TABS,ioos:station:wmo:42046:1,2006-12-01T01:30:00Z,27.8903,-94.0367,2.0,208.8877829,11.69530248,-99999.0,'11111222,11111222,99999999' 
TABS,ioos:station:wmo:42046:1,2006-12-01T02:00:00Z,27.8903,-94.0367,2.0,157.1297798,4.580043668,-99999.0,'11133222,11111222,99999999' 
TABS,ioos:station:wmo:42046:1,2006-12-01T02:30:00Z,27.8903,-94.0367,2.0,215.0561243,10.93347612,-99999.0,'11111222,11111222,99999999' 
TABS,ioos:station:wmo:42046:1,2006-12-01T03:00:00Z,27.8903,-94.0367,2.0,196.2306165,14.06040184,-99999.0,'11111222,11111222,99999999' 
TABS,ioos:station:wmo:42046:1,2006-12-01T03:30:00Z,27.8903,-94.0367,2.0,184.8368833,8.419988124,-99999.0,'11133222,11111222,99999999' 
TABS,ioos:station:wmo:42046:1,2006-12-01T04:00:00Z,27.8903,-94.0367,2.0,197.4353672,12.14815624,-99999.0,'11111222,11111222,99999999' 
TABS,ioos:station:wmo:42046:1,2006-12-01T04:30:00Z,27.8903,-94.0367,2.0,206.121399,15.60374955,-99999.0,'11111222,11111222,99999999' 
TABS,ioos:station:wmo:42046:1,2006-12-01T05:00:00Z,27.8903,-94.0367,2.0,201.8558147,21.40882528,-99999.0,'11111222,11111222,99999999' 
TABS,ioos:station:wmo:42046:1,2006-12-01T05:30:00Z,27.8903,-94.0367,2.0,208.6683711,15.71673312,-99999.0,'11111222,11111222,99999999' 
TABS,ioos:station:wmo:42046:1,2006-12-01T06:00:00Z,27.8903,-94.0367,2.0,202.9285281,18.40411367,-99999.0,'11111222,11111222,99999999' 
TABS,ioos:station:wmo:42046:1,2006-12-01T06:30:00Z,27.8903,-94.0367,2.0,192.6589364,22.40463568,-99999.0,'11111222,11111222,99999999' 
TABS,ioos:station:wmo:42046:1,2006-12-01T07:00:00Z,27.8903,-94.0367,2.0,221.4233583,24.71200923,-99999.0,'11111222,11111222,99999999' 
TABS,ioos:station:wmo:42046:1,2006-12-01T07:30:00Z,27.8903,-94.0367,2.0,226.7974508,22.53951641,-99999.0,'11111222,11111222,99999999' 
TABS,ioos:station:wmo:42046:1,2006-12-01T08:00:00Z,27.8903,-94.0367,2.0,223.6804429,15.97070443,-99999.0,'11111222,11111222,99999999' 
TABS,ioos:station:wmo:42046:1,2006-12-01T08:30:00Z,27.8903,-94.0367,2.0,221.0831515,19.46260517,-99999.0,'11111222,11111222,99999999' 
TABS,ioos:station:wmo:42046:1,2006-12-01T09:00:00Z,27.8903,-94.0367,2.0,226.486684,18.25657416,-99999.0,'11111222,11111222,99999999' 
TABS,ioos:station:wmo:42046:1,2006-12-01T09:30:00Z,27.8903,-94.0367,2.0,242.3745936,20.79004569,-99999.0,'11111222,11111222,99999999' 
TABS,ioos:station:wmo:42046:1,2006-12-01T10:00:00Z,27.8903,-94.0367,2.0,242.5409696,23.22662696,-99999.0,'11111222,11111222,99999999' 
TABS,ioos:station:wmo:42046:1,2006-12-01T10:30:00Z,27.8903,-94.0367,2.0,243.3292119,17.02097823,-99999.0,'11111222,11111222,99999999' 
TABS,ioos:station:wmo:42046:1,2006-12-01T11:00:00Z,27.8903,-94.0367,2.0,257.0030095,21.65472004,-99999.0,'11111222,11111222,99999999' 
TABS,ioos:station:wmo:42046:1,2006-12-01T11:30:00Z,27.8903,-94.0367,2.0,268.0930057,22.24231328,-99999.0,'11111222,11111222,99999999' 
TABS,ioos:station:wmo:42046:1,2006-12-01T12:00:00Z,27.8903,-94.0367,2.0,268.3648365,17.87727608,-99999.0,'11111222,11111222,99999999' 
TABS,ioos:station:wmo:42046:1,2006-12-01T12:30:00Z,27.8903,-94.0367,2.0,290.7657844,18.89758979,-99999.0,'11111222,11111222,99999999' 
TABS,ioos:station:wmo:42046:1,2006-12-01T13:00:00Z,27.8903,-94.0367,2.0,293.4889013,20.4985097,-99999.0,'11111222,11111222,99999999' 
TABS,ioos:station:wmo:42046:1,2006-12-01T13:30:00Z,27.8903,-94.0367,2.0,290.8022547,21.82252277,-99999.0,'11111222,11111222,99999999' 
TABS,ioos:station:wmo:42046:1,2006-12-01T14:00:00Z,27.8903,-94.0367,2.0,292.9542075,25.20581282,-99999.0,'11111222,11111222,99999999' 
TABS,ioos:station:wmo:42046:1,2006-12-01T14:30:00Z,27.8903,-94.0367,2.0,291.2347998,22.14339631,-99999.0,'11111222,11111222,99999999' 
TABS,ioos:station:wmo:42046:1,2006-12-01T15:00:00Z,27.8903,-94.0367,2.0,307.0717832,25.01615478,-99999.0,'11111222,11111222,99999999' 
TABS,ioos:station:wmo:42046:1,2006-12-01T15:30:00Z,27.8903,-94.0367,2.0,299.7183396,21.14048249,-99999.0,'11111222,11111222,99999999' 
TABS,ioos:station:wmo:42046:1,2006-12-01T16:00:00Z,27.8903,-94.0367,2.0,307.2584493,22.72852173,-99999.0,'11111222,11111222,99999999' 
TABS,ioos:station:wmo:42046:1,2006-12-01T16:30:00Z,27.8903,-94.0367,2.0,308.6160279,20.28541594,-99999.0,'11111222,11111222,99999999' 
TABS,ioos:station:wmo:42046:1,2006-12-01T17:00:00Z,27.8903,-94.0367,2.0,300.5123489,20.01107693,-99999.0,'11111222,11111222,99999999' 
TABS,ioos:station:wmo:42046:1,2006-12-01T17:30:00Z,27.8903,-94.0367,2.0,311.7330923,17.74186292,-99999.0,'11111222,11111222,99999999' 
TABS,ioos:station:wmo:42046:1,2006-12-01T18:00:00Z,27.8903,-94.0367,2.0,317.6041998,13.85238247,-99999.0,'11111222,11111222,99999999' 
TABS,ioos:station:wmo:42046:1,2006-12-01T18:30:00Z,27.8903,-94.0367,2.0,318.7678725,15.06564967,-99999.0,'11111222,11111222,99999999' 
TABS,ioos:station:wmo:42046:1,2006-12-01T19:00:00Z,27.8903,-94.0367,2.0,321.8589026,18.29650513,-99999.0,'11111222,11111222,99999999' 
TABS,ioos:station:wmo:42046:1,2006-12-01T19:30:00Z,27.8903,-94.0367,2.0,317.0584922,18.11361919,-99999.0,'11111222,11111222,99999999' 
TABS,ioos:station:wmo:42046:1,2006-12-01T20:00:00Z,27.8903,-94.0367,2.0,325.2278564,14.53573872,-99999.0,'11111222,11111222,99999999' 
TABS,ioos:station:wmo:42046:1,2006-12-01T20:30:00Z,27.8903,-94.0367,2.0,340.9240133,13.27923567,-99999.0,'11111222,11111222,99999999' 
TABS,ioos:station:wmo:42046:1,2006-12-01T21:00:00Z,27.8903,-94.0367,2.0,336.7262257,14.95712874,-99999.0,'11111222,11111222,99999999' 
TABS,ioos:station:wmo:42046:1,2006-12-01T21:30:00Z,27.8903,-94.0367,2.0,356.2789059,12.3259888,-99999.0,'11111222,11111222,99999999' 
TABS,ioos:station:wmo:42046:1,2006-12-01T22:00:00Z,27.8903,-94.0367,2.0,350.0575413,13.72615387,-99999.0,'11111222,11111222,99999999' 
TABS,ioos:station:wmo:42046:1,2006-12-01T22:30:00Z,27.8903,-94.0367,2.0,344.2916094,9.972462083,-99999.0,'11133222,11111222,99999999' 
TABS,ioos:station:wmo:42046:1,2006-12-01T23:00:00Z,27.8903,-94.0367,2.0,343.1329464,13.06193324,-99999.0,'11111222,11111222,99999999' 
TABS,ioos:station:wmo:42046:1,2006-12-01T23:30:00Z,27.8903,-94.0367,2.0,344.3710395,8.46291321,-99999.0,'11133222,11111222,99999999' 
TABS,ioos:station:wmo:42046:1,2006-12-02T00:00:00Z,27.8903,-94.0367,2.0,314.0762725,1.753852901,-99999.0,'11133222,11111222,99999999' 
TABS,ioos:station:wmo:42046:1,2006-12-02T00:30:00Z,27.8903,-94.0367,2.0,349.315323,7.550920474,-99999.0,'11133222,11111222,99999999' 
TABS,ioos:station:wmo:42046:1,2006-12-02T01:00:00Z,27.8903,-94.0367,2.0,352.6075803,6.372974188,-99999.0,'11133222,11111222,99999999' 
TABS,ioos:station:wmo:42046:1,2006-12-02T01:30:00Z,27.8903,-94.0367,2.0,338.2170468,5.847546494,-99999.0,'11133222,11111222,99999999' 
TABS,ioos:station:wmo:42046:1,2006-12-02T02:00:00Z,27.8903,-94.0367,2.0,329.5169817,3.272308054,-99999.0,'11133222,11111222,99999999' 
TABS,ioos:station:wmo:42046:1,2006-12-02T02:30:00Z,27.8903,-94.0367,2.0,335.6065281,3.777194726,-99999.0,'11133222,11111222,99999999' 
TABS,ioos:station:wmo:42046:1,2006-12-02T03:00:00Z,27.8903,-94.0367,2.0,282.3811489,0.839523674,-99999.0,'11133222,11111222,99999999' 
TABS,ioos:station:wmo:42046:1,2006-12-02T03:30:00Z,27.8903,-94.0367,2.0,281.1389546,1.967053634,-99999.0,'11133222,11111222,99999999' 
TABS,ioos:station:wmo:42046:1,2006-12-02T04:00:00Z,27.8903,-94.0367,2.0,322.5150757,1.676096656,-99999.0,'11133222,11111222,99999999' 
TABS,ioos:station:wmo:42046:1,2006-12-02T04:30:00Z,27.8903,-94.0367,2.0,277.2621175,3.63918947,-99999.0,'11133222,11111222,99999999' 
TABS,ioos:station:wmo:42046:1,2006-12-02T05:00:00Z,27.8903,-94.0367,2.0,277.0780884,3.002881949,-99999.0,'11133222,11111222,99999999' 
TABS,ioos:station:wmo:42046:1,2006-12-02T05:30:00Z,27.8903,-94.0367,2.0,286.8990301,3.302605032,-99999.0,'11133222,11111222,99999999' 
TABS,ioos:station:wmo:42046:1,2006-12-02T06:00:00Z,27.8903,-94.0367,2.0,280.0719861,4.174326293,-99999.0,'11133222,11111222,99999999' 
TABS,ioos:station:wmo:42046:1,2006-12-02T06:30:00Z,27.8903,-94.0367,2.0,274.5578293,5.537508465,-99999.0,'11133222,11111222,99999999' 
TABS,ioos:station:wmo:42046:1,2006-12-02T07:00:00Z,27.8903,-94.0367,2.0,263.289758,6.504552252,-99999.0,'11133222,11111222,99999999' 
TABS,ioos:station:wmo:42046:1,2006-12-02T07:30:00Z,27.8903,-94.0367,2.0,255.3870696,5.787192756,-99999.0,'11133222,11111222,99999999' 
TABS,ioos:station:wmo:42046:1,2006-12-02T08:00:00Z,27.8903,-94.0367,2.0,265.5163305,8.315443464,-99999.0,'11133222,11111222,99999999' 
TABS,ioos:station:wmo:42046:1,2006-12-02T08:30:00Z,27.8903,-94.0367,2.0,257.6937398,9.477763449,-99999.0,'11133222,11111222,99999999' 
TABS,ioos:station:wmo:42046:1,2006-12-02T09:00:00Z,27.8903,-94.0367,2.0,252.2079014,7.887217507,-99999.0,'11133222,11111222,99999999' 
TABS,ioos:station:wmo:42046:1,2006-12-02T09:30:00Z,27.8903,-94.0367,2.0,248.1660501,9.921703483,-99999.0,'11133222,11111222,99999999' 
TABS,ioos:station:wmo:42046:1,2006-12-02T10:00:00Z,27.8903,-94.0367,2.0,259.2288435,11.87928028,-99999.0,'11111222,11111222,99999999' 
TABS,ioos:station:wmo:42046:1,2006-12-02T10:30:00Z,27.8903,-94.0367,2.0,270.6374062,16.19100059,-99999.0,'11111222,11111222,99999999' 
TABS,ioos:station:wmo:42046:1,2006-12-02T11:00:00Z,27.8903,-94.0367,2.0,275.2552529,18.88938856,-99999.0,'11111222,11111222,99999999' 
TABS,ioos:station:wmo:42046:1,2006-12-02T11:30:00Z,27.8903,-94.0367,2.0,272.5419015,19.16885495,-99999.0,'11111222,11111222,99999999' 
TABS,ioos:station:wmo:42046:1,2006-12-02T12:00:00Z,27.8903,-94.0367,2.0,277.3029514,13.61039676,-99999.0,'11111222,11111222,99999999' 
TABS,ioos:station:wmo:42046:1,2006-12-02T12:30:00Z,27.8903,-94.0367,2.0,283.6140819,17.75894141,-99999.0,'11111222,11111222,99999999' 
TABS,ioos:station:wmo:42046:1,2006-12-02T13:00:00Z,27.8903,-94.0367,2.0,288.6869078,19.44503278,-99999.0,'11111222,11111222,99999999' 
TABS,ioos:station:wmo:42046:1,2006-12-02T13:30:00Z,27.8903,-94.0367,2.0,289.0088189,19.58812906,-99999.0,'11111222,11111222,99999999' 
TABS,ioos:station:wmo:42046:1,2006-12-02T14:00:00Z,27.8903,-94.0367,2.0,302.311736,22.82419988,-99999.0,'11111222,11111222,99999999' 
TABS,ioos:station:wmo:42046:1,2006-12-02T14:30:00Z,27.8903,-94.0367,2.0,307.7062887,21.1082472,-99999.0,'11111222,11111222,99999999' 
TABS,ioos:station:wmo:42046:1,2006-12-02T15:00:00Z,27.8903,-94.0367,2.0,306.6764721,21.88212513,-99999.0,'11111222,11111222,99999999' 
TABS,ioos:station:wmo:42046:1,2006-12-02T15:30:00Z,27.8903,-94.0367,2.0,311.3048391,22.27067354,-99999.0,'11111222,11111222,99999999' 
TABS,ioos:station:wmo:42046:1,2006-12-02T16:00:00Z,27.8903,-94.0367,2.0,310.1342274,21.67315851,-99999.0,'11111222,11111222,99999999' 
TABS,ioos:station:wmo:42046:1,2006-12-02T16:30:00Z,27.8903,-94.0367,2.0,315.6253343,23.33591224,-99999.0,'11111222,11111222,99999999' 
TABS,ioos:station:wmo:42046:1,2006-12-02T17:00:00Z,27.8903,-94.0367,2.0,314.3156728,24.26256582,-99999.0,'11111222,11111222,99999999' 
TABS,ioos:station:wmo:42046:1,2006-12-02T17:30:00Z,27.8903,-94.0367,2.0,324.2896277,21.94649175,-99999.0,'11111222,11111222,99999999' 
TABS,ioos:station:wmo:42046:1,2006-12-02T18:00:00Z,27.8903,-94.0367,2.0,314.9123581,23.030495,-99999.0,'11111222,11111222,99999999' 
TABS,ioos:station:wmo:42046:1,2006-12-02T18:30:00Z,27.8903,-94.0367,2.0,317.263224,19.8781312,-99999.0,'11111222,11111222,99999999' 
TABS,ioos:station:wmo:42046:1,2006-12-02T19:00:00Z,27.8903,-94.0367,2.0,312.6617929,20.27549506,-99999.0,'11111222,11111222,99999999' 
TABS,ioos:station:wmo:42046:1,2006-12-02T19:30:00Z,27.8903,-94.0367,2.0,313.1767895,18.44361407,-99999.0,'11111222,11111222,99999999' 
TABS,ioos:station:wmo:42046:1,2006-12-02T20:00:00Z,27.8903,-94.0367,2.0,315.9138363,18.62756023,-99999.0,'11111222,11111222,99999999' 
TABS,ioos:station:wmo:42046:1,2006-12-02T20:30:00Z,27.8903,-94.0367,2.0,314.3498254,16.19378893,-99999.0,'11111222,11111222,99999999' 
TABS,ioos:station:wmo:42046:1,2006-12-02T21:00:00Z,27.8903,-94.0367,2.0,306.3034624,13.74867266,-99999.0,'11111222,11111222,99999999' 
TABS,ioos:station:wmo:42046:1,2006-12-02T21:30:00Z,27.8903,-94.0367,2.0,307.6908838,11.17114587,-99999.0,'11111222,11111222,99999999' 
TABS,ioos:station:wmo:42046:1,2006-12-02T22:00:00Z,27.8903,-94.0367,2.0,315.5521547,12.48101358,-99999.0,'11111222,11111222,99999999' 
TABS,ioos:station:wmo:42046:1,2006-12-02T22:30:00Z,27.8903,-94.0367,2.0,318.9069348,10.48246631,-99999.0,'11111222,11111222,99999999' 
TABS,ioos:station:wmo:42046:1,2006-12-02T23:00:00Z,27.8903,-94.0367,2.0,317.5857297,13.95127593,-99999.0,'11111222,11111222,99999999' 
TABS,ioos:station:wmo:42046:1,2006-12-02T23:30:00Z,27.8903,-94.0367,2.0,320.779788,10.53286286,-99999.0,'11111222,11111222,99999999' 
TABS,ioos:station:wmo:42046:1,2006-12-03T00:00:00Z,27.8903,-94.0367,2.0,314.8339203,7.304443853,-99999.0,'11133222,11111222,99999999' 
TABS,ioos:station:wmo:42046:1,2006-12-03T00:30:00Z,27.8903,-94.0367,2.0,328.8331107,8.695033065,-99999.0,'11133222,11111222,99999999' 
TABS,ioos:station:wmo:42046:1,2006-12-03T01:00:00Z,27.8903,-94.0367,2.0,328.985177,9.567909908,-99999.0,'11133222,11111222,99999999' 
TABS,ioos:station:wmo:42046:1,2006-12-03T01:30:00Z,27.8903,-94.0367,2.0,307.8507467,8.181197956,-99999.0,'11133222,11111222,99999999' 
TABS,ioos:station:wmo:42046:1,2006-12-03T02:00:00Z,27.8903,-94.0367,2.0,309.6475268,4.168896737,-99999.0,'11133222,11111222,99999999' 
TABS,ioos:station:wmo:42046:1,2006-12-03T02:30:00Z,27.8903,-94.0367,2.0,336.4786176,3.958951881,-99999.0,'11133222,11111222,99999999' 
TABS,ioos:station:wmo:42046:1,2006-12-03T03:00:00Z,27.8903,-94.0367,2.0,334.7991457,3.381892961,-99999.0,'11133222,11111222,99999999' 
TABS,ioos:station:wmo:42046:1,2006-12-03T03:30:00Z,27.8903,-94.0367,2.0,325.4565418,3.350761108,-99999.0,'11133222,11111222,99999999' 
TABS,ioos:station:wmo:42046:1,2006-12-03T04:00:00Z,27.8903,-94.0367,2.0,336.9934402,3.530849756,-99999.0,'11133222,11111222,99999999' 
TABS,ioos:station:wmo:42046:1,2006-12-03T04:30:00Z,27.8903,-94.0367,2.0,330.1013785,0.92282176,-99999.0,'11133222,11111222,99999999' 
TABS,ioos:station:wmo:42046:1,2006-12-03T05:00:00Z,27.8903,-94.0367,2.0,29.02661915,1.97850954,-99999.0,'11133222,11111222,99999999' 
TABS,ioos:station:wmo:42046:1,2006-12-03T05:30:00Z,27.8903,-94.0367,2.0,296.8167051,2.03931361,-99999.0,'11133222,11111222,99999999' 
TABS,ioos:station:wmo:42046:1,2006-12-03T06:00:00Z,27.8903,-94.0367,2.0,294.2040408,2.170829335,-99999.0,'11133222,11111222,99999999' 
TABS,ioos:station:wmo:42046:1,2006-12-03T06:30:00Z,27.8903,-94.0367,2.0,258.3018912,2.318145811,-99999.0,'11133222,11111222,99999999' 
TABS,ioos:station:wmo:42046:1,2006-12-03T07:00:00Z,27.8903,-94.0367,2.0,238.9825967,1.843610588,-99999.0,'11133222,11111222,99999999' 
TABS,ioos:station:wmo:42046:1,2006-12-03T07:30:00Z,27.8903,-94.0367,2.0,232.0773518,4.246716379,-99999.0,'11133222,11111222,99999999' 
TABS,ioos:station:wmo:42046:1,2006-12-03T08:00:00Z,27.8903,-94.0367,2.0,254.6130412,5.35182212,-99999.0,'11133222,11111222,99999999' 
TABS,ioos:station:wmo:42046:1,2006-12-03T08:30:00Z,27.8903,-94.0367,2.0,227.4046879,7.077301746,-99999.0,'11133222,11111222,99999999' 
TABS,ioos:station:wmo:42046:1,2006-12-03T09:00:00Z,27.8903,-94.0367,2.0,250.816198,5.325729997,-99999.0,'11133222,11111222,99999999' 
TABS,ioos:station:wmo:42046:1,2006-12-03T09:30:00Z,27.8903,-94.0367,2.0,242.8893664,5.639618781,-99999.0,'11133222,11111222,99999999' 
TABS,ioos:station:wmo:42046:1,2006-12-03T10:00:00Z,27.8903,-94.0367,2.0,256.9878793,5.018864413,-99999.0,'11133222,11111222,99999999' 
TABS,ioos:station:wmo:42046:1,2006-12-03T10:30:00Z,27.8903,-94.0367,2.0,244.0637551,6.51629496,-99999.0,'11133222,11111222,99999999' 
TABS,ioos:station:wmo:42046:1,2006-12-03T11:00:00Z,27.8903,-94.0367,2.0,248.423405,7.559715603,-99999.0,'11133222,11111222,99999999' 
TABS,ioos:station:wmo:42046:1,2006-12-03T11:30:00Z,27.8903,-94.0367,2.0,257.6739759,10.39971153,-99999.0,'11111222,11111222,99999999' 
TABS,ioos:station:wmo:42046:1,2006-12-03T12:00:00Z,27.8903,-94.0367,2.0,254.9684916,7.403303317,-99999.0,'11133222,11111222,99999999' 
TABS,ioos:station:wmo:42046:1,2006-12-03T12:30:00Z,27.8903,-94.0367,2.0,274.6298699,10.28354997,-99999.0,'11111222,11111222,99999999' 
TABS,ioos:station:wmo:42046:1,2006-12-03T13:00:00Z,27.8903,-94.0367,2.0,278.616049,13.01688903,-99999.0,'11111222,11111222,99999999' 
TABS,ioos:station:wmo:42046:1,2006-12-03T13:30:00Z,27.8903,-94.0367,2.0,283.5160018,11.2104594,-99999.0,'11111222,11111222,99999999' 
TABS,ioos:station:wmo:42046:1,2006-12-03T14:00:00Z,27.8903,-94.0367,2.0,280.8391798,15.74081319,-99999.0,'11111222,11111222,99999999' 
TABS,ioos:station:wmo:42046:1,2006-12-03T14:30:00Z,27.8903,-94.0367,2.0,317.0554385,16.36590664,-99999.0,'11111222,11111222,99999999' 
TABS,ioos:station:wmo:42046:1,2006-12-03T15:00:00Z,27.8903,-94.0367,2.0,305.234308,15.13216772,-99999.0,'11111222,11111222,99999999' 
TABS,ioos:station:wmo:42046:1,2006-12-03T15:30:00Z,27.8903,-94.0367,2.0,308.4970033,15.35819,-99999.0,'11111222,11111222,99999999' 
TABS,ioos:station:wmo:42046:1,2006-12-03T16:00:00Z,27.8903,-94.0367,2.0,314.6769803,12.53013168,-99999.0,'11111222,11111222,99999999' 
TABS,ioos:station:wmo:42046:1,2006-12-03T16:30:00Z,27.8903,-94.0367,2.0,309.8011267,15.37210786,-99999.0,'11111222,11111222,99999999' 
TABS,ioos:station:wmo:42046:1,2006-12-03T17:00:00Z,27.8903,-94.0367,2.0,308.0860976,16.21165013,-99999.0,'11111222,11111222,99999999' 
TABS,ioos:station:wmo:42046:1,2006-12-03T17:30:00Z,27.8903,-94.0367,2.0,315.0794897,15.35130288,-99999.0,'11111222,11111222,99999999' 
TABS,ioos:station:wmo:42046:1,2006-12-03T18:00:00Z,27.8903,-94.0367,2.0,317.4062806,15.15959102,-99999.0,'11111222,11111222,99999999' 
TABS,ioos:station:wmo:42046:1,2006-12-03T18:30:00Z,27.8903,-94.0367,2.0,312.9939639,13.33006377,-99999.0,'11111222,11111222,99999999' 
TABS,ioos:station:wmo:42046:1,2006-12-03T19:00:00Z,27.8903,-94.0367,2.0,324.0735772,11.29953096,-99999.0,'11111222,11111222,99999999' 
TABS,ioos:station:wmo:42046:1,2006-12-03T19:30:00Z,27.8903,-94.0367,2.0,305.4445684,10.69130955,-99999.0,'11111222,11111222,99999999' 
TABS,ioos:station:wmo:42046:1,2006-12-03T20:00:00Z,27.8903,-94.0367,2.0,311.0676812,10.00082497,-99999.0,'11111222,11111222,99999999' 
TABS,ioos:station:wmo:42046:1,2006-12-03T20:30:00Z,27.8903,-94.0367,2.0,295.6251204,11.4457372,-99999.0,'11111222,11111222,99999999' 
TABS,ioos:station:wmo:42046:1,2006-12-03T21:00:00Z,27.8903,-94.0367,2.0,306.5963239,7.112081271,-99999.0,'11133222,11111222,99999999' 
TABS,ioos:station:wmo:42046:1,2006-12-03T21:30:00Z,27.8903,-94.0367,2.0,288.8078548,12.15921461,-99999.0,'11111222,11111222,99999999' 
TABS,ioos:station:wmo:42046:1,2006-12-03T22:00:00Z,27.8903,-94.0367,2.0,296.7484625,9.798499885,-99999.0,'11133222,11111222,99999999' 
TABS,ioos:station:wmo:42046:1,2006-12-03T22:30:00Z,27.8903,-94.0367,2.0,295.9049219,15.13024124,-99999.0,'11111222,11111222,99999999' 
TABS,ioos:station:wmo:42046:1,2006-12-03T23:00:00Z,27.8903,-94.0367,2.0,275.1628059,11.33598253,-99999.0,'11111222,11111222,99999999' 
TABS,ioos:station:wmo:42046:1,2006-12-03T23:30:00Z,27.8903,-94.0367,2.0,301.1419624,7.734623456,-99999.0,'11133222,11111222,99999999' 
TABS,ioos:station:wmo:42046:1,2006-12-04T00:00:00Z,27.8903,-94.0367,2.0,253.7394124,8.5,-99999.0,'11133222,11111222,99999999' 
TABS,ioos:station:wmo:42046:1,2006-12-04T00:30:00Z,27.8903,-94.0367,2.0,311.2826867,4.471252621,-99999.0,'11133222,11111222,99999999' 
TABS,ioos:station:wmo:42046:1,2006-12-04T01:00:00Z,27.8903,-94.0367,2.0,284.8362397,10.42762197,-99999.0,'11111222,11111222,99999999' 
TABS,ioos:station:wmo:42046:1,2006-12-04T01:30:00Z,27.8903,-94.0367,2.0,306.9630939,6.170008104,-99999.0,'11133222,11111222,99999999' 
TABS,ioos:station:wmo:42046:1,2006-12-04T02:00:00Z,27.8903,-94.0367,2.0,288.8205298,10.81839637,-99999.0,'11111222,11111222,99999999' 
TABS,ioos:station:wmo:42046:1,2006-12-04T02:30:00Z,27.8903,-94.0367,2.0,270.4909538,11.68042807,-99999.0,'11111222,11111222,99999999' 
TABS,ioos:station:wmo:42046:1,2006-12-04T03:00:00Z,27.8903,-94.0367,2.0,254.3375094,7.778823819,-99999.0,'11133222,11111222,99999999' 
TABS,ioos:station:wmo:42046:1,2006-12-04T03:30:00Z,27.8903,-94.0367,2.0,275.665371,7.496612568,-99999.0,'11133222,11111222,99999999' 
TABS,ioos:station:wmo:42046:1,2006-12-04T04:00:00Z,27.8903,-94.0367,2.0,273.7095691,7.26521851,-99999.0,'11133222,11111222,99999999' 
TABS,ioos:station:wmo:42046:1,2006-12-04T04:30:00Z,27.8903,-94.0367,2.0,260.4234757,10.75993494,-99999.0,'11111222,11111222,99999999' 
TABS,ioos:station:wmo:42046:1,2006-12-04T05:00:00Z,27.8903,-94.0367,2.0,284.825633,13.20974262,-99999.0,'11111222,11111222,99999999' 
TABS,ioos:station:wmo:42046:1,2006-12-04T05:30:00Z,27.8903,-94.0367,2.0,299.7645111,11.05893756,-99999.0,'11111222,11111222,99999999' 
TABS,ioos:station:wmo:42046:1,2006-12-04T06:00:00Z,27.8903,-94.0367,2.0,280.1814948,10.35301888,-99999.0,'11111222,11111222,99999999' 
TABS,ioos:station:wmo:42046:1,2006-12-04T06:30:00Z,27.8903,-94.0367,2.0,262.5096439,12.65800142,-99999.0,'11111222,11111222,99999999' 
TABS,ioos:station:wmo:42046:1,2006-12-04T07:00:00Z,27.8903,-94.0367,2.0,279.6983749,11.99136356,-99999.0,'11111222,11111222,99999999' 
TABS,ioos:station:wmo:42046:1,2006-12-04T07:30:00Z,27.8903,-94.0367,2.0,258.6809906,12.94170391,-99999.0,'11111222,11111222,99999999' 
TABS,ioos:station:wmo:42046:1,2006-12-04T08:00:00Z,27.8903,-94.0367,2.0,265.2314023,10.46622186,-99999.0,'11111222,11111222,99999999' 
TABS,ioos:station:wmo:42046:1,2006-12-04T08:30:00Z,27.8903,-94.0367,2.0,263.2265081,15.34710722,-99999.0,'11111222,11111222,99999999' 
TABS,ioos:station:wmo:42046:1,2006-12-04T09:00:00Z,27.8903,-94.0367,2.0,260.4148689,12.31186826,-99999.0,'11111222,11111222,99999999' 
TABS,ioos:station:wmo:42046:1,2006-12-04T09:30:00Z,27.8903,-94.0367,2.0,282.5682823,15.90100626,-99999.0,'11111222,11111222,99999999' 
TABS,ioos:station:wmo:42046:1,2006-12-04T10:00:00Z,27.8903,-94.0367,2.0,269.5242867,13.26045625,-99999.0,'11111222,11111222,99999999' 
TABS,ioos:station:wmo:42046:1,2006-12-04T10:30:00Z,27.8903,-94.0367,2.0,266.4967221,17.51271824,-99999.0,'11111222,11111222,99999999' 
TABS,ioos:station:wmo:42046:1,2006-12-04T11:00:00Z,27.8903,-94.0367,2.0,265.1298074,16.13825579,-99999.0,'11111222,11111222,99999999' 
TABS,ioos:station:wmo:42046:1,2006-12-04T11:30:00Z,27.8903,-94.0367,2.0,263.2053661,15.46862954,-99999.0,'11111222,11111222,99999999' 
TABS,ioos:station:wmo:42046:1,2006-12-04T12:00:00Z,27.8903,-94.0367,2.0,281.2074623,14.20079223,-99999.0,'11111222,11111222,99999999' 
TABS,ioos:station:wmo:42046:1,2006-12-04T12:30:00Z,27.8903,-94.0367,2.0,275.5726057,20.59732992,-99999.0,'11111222,11111222,99999999' 
TABS,ioos:station:wmo:42046:1,2006-12-04T13:00:00Z,27.8903,-94.0367,2.0,273.490654,22.83234986,-99999.0,'11111222,11111222,99999999' 
TABS,ioos:station:wmo:42046:1,2006-12-04T13:30:00Z,27.8903,-94.0367,2.0,277.4669892,22.47053181,-99999.0,'11111222,11111222,99999999' 
TABS,ioos:station:wmo:42046:1,2006-12-04T14:00:00Z,27.8903,-94.0367,2.0,289.3889433,24.7008097,-99999.0,'11111222,11111222,99999999' 
TABS,ioos:station:wmo:42046:1,2006-12-04T14:30:00Z,27.8903,-94.0367,2.0,293.1113314,25.75709999,-99999.0,'11111222,11111222,99999999' 
TABS,ioos:station:wmo:42046:1,2006-12-04T15:00:00Z,27.8903,-94.0367,2.0,292.3579473,24.86949135,-99999.0,'11111222,11111222,99999999' 
TABS,ioos:station:wmo:42046:1,2006-12-04T15:30:00Z,27.8903,-94.0367,2.0,293.7606321,25.31578361,-99999.0,'11111222,11111222,99999999' 
TABS,ioos:station:wmo:42046:1,2006-12-04T16:00:00Z,27.8903,-94.0367,2.0,295.5603263,23.71044074,-99999.0,'11111222,11111222,99999999' 